When you browse on this site, cookies collect data to enhance your experience and personalize the content and advertising you see.
Visit our Privacy Policy to learn more. By continuing to use the site, you agree to this use of cookies and data.
  • In Schweiz
  • Länderverzeichnis
  • Für 7 Tage
  • Wassertemperatur
  • Wetterkarte
  • Widgets
  • user-avatar
    Anmelden

    Stündliche Wetter Saidpur

    Heute, 24 Februar, Montag

    Zeit Temperatur Niederschläge Wind Luftdruck Luftfeuchtigkeit
    00:00 +24°C° 0 mm 2 m/S 758 mmHg 46%
    01:00 +24°C° 0 mm 1 m/S 758 mmHg 46%
    02:00 +24°C° 0 mm 1 m/S 757 mmHg 47%
    03:00 +21°C° 0 mm 0 m/S 757 mmHg 47%
    04:00 +23°C° 0.4 mm 1 m/S 757 mmHg 50%
    05:00 +23°C° 0.4 mm 1 m/S 757 mmHg 53%
    06:00 +21°C° 0 mm 2 m/S 757 mmHg 59%
    07:00 +23°C° 0.5 mm 1 m/S 758 mmHg 58%
    08:00 +23°C° 0.5 mm 1 m/S 758 mmHg 56%
    09:00 +24°C° 0.5 mm 1 m/S 759 mmHg 55%
    10:00 +26°C° 0.2 mm 1 m/S 759 mmHg 49%
    11:00 +28°C° 0.2 mm 1 m/S 759 mmHg 42%
    12:00 +30°C° 0.2 mm 1 m/S 759 mmHg 36%
    13:00 +31°C° 0 mm 1 m/S 757 mmHg 34%
    14:00 +31°C° 0 mm 2 m/S 756 mmHg 33%
    15:00 +32°C° 0 mm 2 m/S 755 mmHg 31%
    16:00 +30°C° 0.1 mm 2 m/S 755 mmHg 34%
    17:00 +29°C° 0.1 mm 2 m/S 755 mmHg 37%
    18:00 +28°C° 0.1 mm 2 m/S 755 mmHg 40%
    19:00 +27°C° 0 mm 2 m/S 755 mmHg 42%
    20:00 +27°C° 0 mm 1 m/S 756 mmHg 44%
    21:00 +26°C° 0 mm 1 m/S 756 mmHg 46%
    22:00 +25°C° 0.2 mm 1 m/S 756 mmHg 50%
    23:00 +24°C° 0.2 mm 1 m/S 756 mmHg 55%

    Morgen, 25 Februar, Dienstag

    Zeit Temperatur Niederschläge Wind Luftdruck Luftfeuchtigkeit
    00:00 +23°C° 0.2 mm 1 m/S 756 mmHg 59%
    01:00 +23°C° 0.5 mm 1 m/S 756 mmHg 62%
    02:00 +23°C° 0.5 mm 1 m/S 756 mmHg 64%
    03:00 +22°C° 0.5 mm 1 m/S 755 mmHg 67%
    04:00 +22°C° 0.4 mm 1 m/S 756 mmHg 68%
    05:00 +22°C° 0.4 mm 1 m/S 756 mmHg 70%
    06:00 +21°C° 0.4 mm 1 m/S 756 mmHg 71%
    07:00 +23°C° 0.2 mm 1 m/S 756 mmHg 66%
    08:00 +24°C° 0.2 mm 2 m/S 757 mmHg 61%
    09:00 +25°C° 0.2 mm 2 m/S 758 mmHg 55%
    10:00 +26°C° 0 mm 2 m/S 758 mmHg 51%
    11:00 +28°C° 0 mm 3 m/S 758 mmHg 47%
    12:00 +29°C° 0 mm 3 m/S 758 mmHg 42%
    13:00 +27°C° 2.4 mm 3 m/S 757 mmHg 53%
    14:00 +25°C° 2.4 mm 4 m/S 756 mmHg 63%
    15:00 +22°C° 2.4 mm 4 m/S 755 mmHg 74%
    16:00 +22°C° 1.4 mm 4 m/S 755 mmHg 75%
    17:00 +21°C° 1.4 mm 5 m/S 755 mmHg 76%
    18:00 +21°C° 1.4 mm 5 m/S 755 mmHg 77%
    19:00 +21°C° 1.5 mm 5 m/S 756 mmHg 79%
    20:00 +20°C° 1.5 mm 4 m/S 757 mmHg 81%
    21:00 +20°C° 1.5 mm 4 m/S 757 mmHg 82%
    22:00 +20°C° 0.9 mm 4 m/S 757 mmHg 81%
    23:00 +20°C° 0.9 mm 5 m/S 757 mmHg 80%

    übermorgen, 26 Februar, Mittwoch

    Zeit Temperatur Niederschläge Wind Luftdruck Luftfeuchtigkeit
    00:00 +20°C° 0.9 mm 5 m/S 757 mmHg 78%
    01:00 +20°C° 0.5 mm 4 m/S 757 mmHg 81%
    02:00 +19°C° 0.5 mm 2 m/S 757 mmHg 83%
    03:00 +20°C° 0.5 mm 1 m/S 756 mmHg 85%
    04:00 +19°C° 0.8 mm 2 m/S 756 mmHg 86%
    05:00 +18°C° 0.8 mm 2 m/S 757 mmHg 88%
    06:00 +18°C° 0.8 mm 2 m/S 757 mmHg 89%
    07:00 +19°C° 0.7 mm 3 m/S 757 mmHg 83%
    08:00 +20°C° 0.7 mm 4 m/S 758 mmHg 77%
    09:00 +21°C° 0.7 mm 4 m/S 758 mmHg 71%
    10:00 +23°C° 0.7 mm 4 m/S 758 mmHg 66%
    11:00 +25°C° 0.7 mm 3 m/S 758 mmHg 62%
    12:00 +26°C° 0.7 mm 3 m/S 758 mmHg 57%
    13:00 +26°C° 0.4 mm 2 m/S 757 mmHg 56%
    14:00 +26°C° 0.4 mm 1 m/S 756 mmHg 54%
    15:00 +27°C° 0.4 mm 1 m/S 755 mmHg 53%
    16:00 +26°C° 0.6 mm 2 m/S 756 mmHg 58%
    17:00 +25°C° 0.6 mm 2 m/S 756 mmHg 63%
    18:00 +24°C° 0.6 mm 3 m/S 756 mmHg 68%
    19:00 +22°C° 0.2 mm 4 m/S 756 mmHg 72%
    20:00 +21°C° 0.2 mm 4 m/S 757 mmHg 76%
    21:00 +20°C° 0.2 mm 4 m/S 757 mmHg 80%
    22:00 +20°C° 0 mm 4 m/S 757 mmHg 82%
    23:00 +19°C° 0 mm 3 m/S 758 mmHg 83%

    27 Februar, Donnerstag

    Zeit Temperatur Niederschläge Wind Luftdruck Luftfeuchtigkeit
    00:00 +19°C° 0 mm 3 m/S 758 mmHg 85%
    01:00 +19°C° 0.1 mm 3 m/S 757 mmHg 86%
    02:00 +18°C° 0.1 mm 2 m/S 757 mmHg 87%
    03:00 +18°C° 0.1 mm 2 m/S 757 mmHg 88%
    04:00 +18°C° 0 mm 2 m/S 757 mmHg 89%
    05:00 +18°C° 0 mm 2 m/S 757 mmHg 89%
    06:00 +18°C° 0 mm 2 m/S 757 mmHg 90%
    07:00 +18°C° 0 mm 2 m/S 758 mmHg 87%
    08:00 +19°C° 0 mm 3 m/S 758 mmHg 84%
    09:00 +20°C° 0 mm 3 m/S 759 mmHg 81%
    10:00 +22°C° 0.1 mm 3 m/S 759 mmHg 73%
    11:00 +24°C° 0.1 mm 2 m/S 758 mmHg 65%
    12:00 +26°C° 0.1 mm 2 m/S 758 mmHg 57%
    13:00 +26°C° 0.1 mm 2 m/S 757 mmHg 55%
    14:00 +27°C° 0.1 mm 2 m/S 757 mmHg 52%
    15:00 +27°C° 0.1 mm 1 m/S 756 mmHg 50%
    16:00 +27°C° 0 mm 1 m/S 756 mmHg 52%
    17:00 +26°C° 0 mm 1 m/S 755 mmHg 54%
    18:00 +26°C° 0 mm 1 m/S 755 mmHg 56%
    19:00 +25°C° 0 mm 1 m/S 756 mmHg 58%
    20:00 +25°C° 0 mm 1 m/S 756 mmHg 60%
    21:00 +24°C° 0 mm 1 m/S 757 mmHg 61%
    22:00 +24°C° 0 mm 1 m/S 757 mmHg 62%
    23:00 +23°C° 0 mm 1 m/S 757 mmHg 63%

    28 Februar, Freitag

    Zeit Temperatur Niederschläge Wind Luftdruck Luftfeuchtigkeit
    00:00 +23°C° 0 mm 1 m/S 757 mmHg 64%
    01:00 +23°C° 0 mm 1 m/S 756 mmHg 66%
    02:00 +22°C° 0 mm 1 m/S 756 mmHg 67%
    03:00 +22°C° 0 mm 1 m/S 756 mmHg 69%
    04:00 +20°C° 0 mm 2 m/S 756 mmHg 70%
    05:00 +20°C° 0 mm 2 m/S 756 mmHg 72%
    06:00 +19°C° 0 mm 2 m/S 756 mmHg 74%
    07:00 +21°C° 0 mm 2 m/S 757 mmHg 69%
    08:00 +22°C° 0 mm 3 m/S 757 mmHg 64%
    09:00 +24°C° 0 mm 3 m/S 758 mmHg 59%
    10:00 +26°C° 0 mm 3 m/S 757 mmHg 53%
    11:00 +27°C° 0 mm 3 m/S 757 mmHg 48%
    12:00 +29°C° 0 mm 3 m/S 757 mmHg 42%
    13:00 +29°C° 0 mm 3 m/S 756 mmHg 40%
    14:00 +30°C° 0 mm 3 m/S 755 mmHg 38%
    15:00 +30°C° 0 mm 2 m/S 754 mmHg 37%
    16:00 +29°C° 0 mm 2 m/S 754 mmHg 39%
    17:00 +28°C° 0 mm 1 m/S 754 mmHg 42%
    18:00 +28°C° 0 mm 1 m/S 754 mmHg 45%
    19:00 +27°C° 0 mm 1 m/S 754 mmHg 46%
    20:00 +26°C° 0 mm 1 m/S 755 mmHg 48%
    21:00 +26°C° 0 mm 1 m/S 755 mmHg 49%
    22:00 +25°C° 0 mm 1 m/S 755 mmHg 50%
    23:00 +25°C° 0 mm 1 m/S 755 mmHg 50%

    29 Februar, Samstag

    Zeit Temperatur Niederschläge Wind Luftdruck Luftfeuchtigkeit
    00:00 +24°C° 0 mm 2 m/S 755 mmHg 51%
    01:00 +24°C° 0 mm 2 m/S 754 mmHg 52%
    02:00 +23°C° 0 mm 2 m/S 754 mmHg 53%
    03:00 +23°C° 0 mm 2 m/S 754 mmHg 54%
    04:00 +21°C° 0 mm 2 m/S 754 mmHg 55%
    05:00 +22°C° 0 mm 1 m/S 754 mmHg 56%
    06:00 +22°C° 0 mm 1 m/S 754 mmHg 57%
    07:00 +23°C° 0 mm 1 m/S 755 mmHg 53%
    08:00 +25°C° 0 mm 1 m/S 755 mmHg 49%
    09:00 +26°C° 0 mm 1 m/S 756 mmHg 45%
    10:00 +27°C° 0 mm 1 m/S 756 mmHg 41%
    11:00 +29°C° 0 mm 1 m/S 755 mmHg 37%
    12:00 +30°C° 0 mm 1 m/S 755 mmHg 34%
    13:00 +31°C° 0 mm 1 m/S 754 mmHg 32%
    14:00 +31°C° 0 mm 1 m/S 753 mmHg 30%
    15:00 +32°C° 0 mm 1 m/S 753 mmHg 28%
    16:00 +29°C° 0 mm 0 m/S 752 mmHg 31%
    17:00 +28°C° 0 mm 0 m/S 752 mmHg 33%
    18:00 +27°C° 0 mm 0 m/S 752 mmHg 36%
    19:00 +26°C° 0 mm 0 m/S 753 mmHg 37%
    20:00 +28°C° 0 mm 1 m/S 753 mmHg 38%
    21:00 +27°C° 0 mm 1 m/S 754 mmHg 38%
    22:00 +26°C° 0 mm 1 m/S 754 mmHg 40%
    23:00 +26°C° 0 mm 1 m/S 754 mmHg 42%
    Mehr zeigen